Waarnemingen

Advertentie
Mijn weer
A12-CPP, Nederland (6205): temperatuur & dauwpunt: 20.04.2018 11:00:00 - 26.04.2018 11:00:00 (CEST)A12-CPP, Nederland (6205): windsnelheid & windstoten: 20.04.2018 11:00:00 - 26.04.2018 11:00:00 (CEST)A12-CPP, Nederland (6205): windrichting: 20.04.2018 11:00:00 - 26.04.2018 11:00:00 (CEST)A12-CPP, Nederland (6205): luchtdruk: 20.04.2018 11:00:00 - 26.04.2018 11:00:00 (CEST)A12-CPP, Nederland (6205): zicht: 20.04.2018 11:00:00 - 26.04.2018 11:00:00 (CEST)
Datum & Tijd tt [°C] td [°C] ff [km/u] ff [kn] fx [km/u] fx [kn] dd ppp [hPa] vv [km]
26.04.2018 11:00:00 - - - - - - - - -
26.04.2018 10:00:00 7,1 5,0 42 23 43 23 WZW 1006,7 10
26.04.2018 09:00:00 7,1 5,0 39 21 36 19 WZW 1006,4 10
26.04.2018 08:00:00 6,9 5,3 35 19 - - WZW 1006,2 10
26.04.2018 07:00:00 7,1 5,2 37 20 36 19 WZW 1005,7 10
26.04.2018 06:00:00 7,2 5,0 41 22 40 21 WZW 1005,4 10
26.04.2018 05:00:00 7,4 5,4 34 18 - - WZW 1005,4 10
26.04.2018 04:00:00 7,5 5,5 37 20 36 19 WZW 1005,3 10
26.04.2018 03:00:00 7,5 5,3 35 19 36 19 WZW 1005,3 10
26.04.2018 02:00:00 7,6 5,4 37 20 - - WZW 1005,5 10
26.04.2018 01:00:00 7,6 5,5 39 21 36 19 ZW 1005,3 10
26.04.2018 00:00:00 7,7 5,5 32 18 40 21 ZW 1005,5 19
25.04.2018 23:00:00 7,7 5,5 39 21 - - ZW 1005,6 10
25.04.2018 22:00:00 7,7 5,3 39 21 36 19 ZW 1005,6 10
25.04.2018 21:00:00 7,6 5,7 29 16 32 18 ZW 1005,6 10
25.04.2018 20:00:00 8,3 5,8 31 17 - - ZW 1005,5 10
25.04.2018 19:00:00 7,6 5,7 29 16 29 16 ZW 1006,0 10
25.04.2018 18:00:00 7,2 5,5 31 17 32 18 ZW 1006,1 10
25.04.2018 17:00:00 7,0 5,7 29 16 - - WZW 1006,1 10
25.04.2018 16:00:00 7,0 6,0 31 17 29 16 WZW 1006,3 10
25.04.2018 15:00:00 6,9 6,1 29 16 29 16 WZW 1006,2 10
25.04.2018 14:00:00 6,8 6,0 31 17 - - ZW 1006,0 10
25.04.2018 13:00:00 6,9 5,9 31 17 40 21 WZW 1005,6 10
25.04.2018 12:00:00 6,9 5,9 39 21 36 19 WZW 1005,5 10
25.04.2018 11:00:00 6,9 6,3 37 20 36 19 ZW 1005,2 10
25.04.2018 10:00:00 6,6 5,9 34 18 36 19 WZW 1004,7 10
25.04.2018 09:00:00 6,5 5,8 28 15 29 16 WZW 1004,5 10
25.04.2018 08:00:00 6,2 5,7 18 10 22 12 WZW 1003,9 10
25.04.2018 07:00:00 6,0 5,5 26 14 29 16 W 1003,7 10
25.04.2018 06:00:00 5,9 5,6 14 8 18 10 NW 1003,2 0,7
25.04.2018 05:00:00 5,9 5,6 11 6 11 6 N 1003,0 10
25.04.2018 04:00:00 6,1 5,9 9 5 11 6 N 1003,0 10
25.04.2018 03:00:00 6,2 5,9 5 3 11 6 - 1003,1 10
25.04.2018 02:00:00 6,4 6,4 4 2 11 6 - 1003,3 10
25.04.2018 01:00:00 6,6 6,2 13 7 18 10 Z 1003,9 10
25.04.2018 00:00:00 6,8 5,3 21 11 22 12 ZZW 1005,1 10
24.04.2018 23:00:00 7,0 6,2 22 12 25 14 ZW 1005,9 10
24.04.2018 22:00:00 7,0 6,3 29 16 32 18 ZW 1006,9 8
24.04.2018 21:00:00 7,2 6,2 37 20 40 21 ZW 1007,3 9
24.04.2018 20:00:00 7,9 6,0 42 23 40 21 ZW 1007,6 10
24.04.2018 19:00:00 7,9 6,0 37 20 36 19 ZW 1007,8 10
24.04.2018 18:00:00 7,7 5,9 35 19 36 19 ZW 1008,3 10
24.04.2018 17:00:00 7,6 5,4 37 20 36 19 WZW 1008,7 10
24.04.2018 16:00:00 8,0 4,4 42 23 43 23 WZW 1009,1 10
24.04.2018 15:00:00 7,8 5,0 50 27 47 25 WZW 1009,4 10
24.04.2018 14:00:00 7,4 5,4 46 25 43 23 WZW 1009,2 10
24.04.2018 13:00:00 7,4 5,2 44 24 43 23 WZW 1009,2 10
24.04.2018 12:00:00 7,6 5,3 50 27 50 27 WZW 1008,7 10
24.04.2018 11:00:00 7,8 5,2 54 29 50 27 WZW 1008,0 10
24.04.2018 10:00:00 7,9 5,0 54 29 58 31 WZW 1007,4 10
24.04.2018 09:00:00 8,3 4,8 55 30 54 29 WZW 1006,8 10
24.04.2018 08:00:00 8,0 5,0 55 30 54 29 WZW 1006,4 10
24.04.2018 07:00:00 8,0 5,0 52 28 54 29 WZW 1005,6 10
24.04.2018 06:00:00 8,3 5,2 54 29 58 31 WZW 1005,2 10
24.04.2018 05:00:00 8,8 6,2 55 30 58 31 W 1005,2 10
24.04.2018 04:00:00 8,6 6,8 43 23 50 27 WZW 1005,0 15
24.04.2018 03:00:00 8,5 6,6 50 27 50 27 ZZW 1005,1 10
24.04.2018 02:00:00 8,3 6,4 41 22 47 25 ZZW 1005,8 10
24.04.2018 01:00:00 7,8 6,3 41 22 47 25 ZZW 1007,0 10
24.04.2018 00:00:00 8,2 5,9 39 21 43 23 ZZW 1008,0 10
23.04.2018 23:00:00 8,9 5,1 44 24 43 23 ZZW 1008,6 10
23.04.2018 22:00:00 8,1 5,5 42 23 40 21 ZZW 1009,4 10
23.04.2018 21:00:00 8,2 5,6 44 24 43 23 ZW 1009,3 10
23.04.2018 20:00:00 8,1 5,6 40 21 43 23 ZW 1009,7 19
23.04.2018 19:00:00 8,4 5,4 42 23 43 23 ZW 1009,6 10
23.04.2018 18:00:00 8,0 5,5 36 19 43 23 ZW 1010,0 22
23.04.2018 17:00:00 8,0 5,1 32 18 43 23 WZW 1009,9 24
23.04.2018 16:00:00 8,4 5,1 40 21 47 25 W 1009,9 23
23.04.2018 15:00:00 8,1 5,4 40 21 50 27 WZW 1009,7 18
23.04.2018 14:00:00 8,0 5,6 48 26 - - WZW 1009,4 10
23.04.2018 13:00:00 7,8 5,7 40 21 54 29 WZW 1008,8 16
23.04.2018 12:00:00 7,8 5,8 40 21 43 23 WZW 1008,3 17
23.04.2018 11:00:00 7,9 5,6 36 19 43 23 WZW 1007,8 20
23.04.2018 10:00:00 7,8 5,7 44 24 43 23 WZW 1007,6 10
23.04.2018 09:00:00 7,8 5,8 36 19 47 25 WZW 1007,0 20
23.04.2018 08:00:00 7,9 5,9 40 21 43 23 WZW 1006,5 21
23.04.2018 07:00:00 8,2 5,8 36 19 43 23 ZW 1006,0 26
23.04.2018 06:00:00 8,2 5,7 41 22 40 21 ZW 1006,1 10
23.04.2018 05:00:00 8,3 5,7 36 19 40 21 ZW 1006,3 18
23.04.2018 04:00:00 8,6 6,3 36 19 47 25 ZW 1006,4 15
23.04.2018 03:00:00 8,5 6,7 40 21 43 23 ZW 1006,2 11
23.04.2018 02:00:00 8,7 7,0 35 19 43 23 ZW 1006,4 10
23.04.2018 01:00:00 9,3 6,8 18 10 22 12 ZW 1006,6 12
23.04.2018 00:00:00 9,5 6,8 11 6 11 6 WZW 1006,8 10
22.04.2018 23:00:00 9,3 6,4 9 5 18 10 WNW 1006,7 10
22.04.2018 22:00:00 8,8 6,7 24 13 25 14 NW 1006,4 10
22.04.2018 21:00:00 8,5 7,0 24 13 36 19 WZW 1006,5 6
22.04.2018 20:00:00 9,0 7,2 32 18 36 19 ZZW 1006,2 8
22.04.2018 19:00:00 9,0 6,9 29 16 43 23 Z 1006,3 12
22.04.2018 18:00:00 9,5 6,4 36 19 43 23 ZZO 1006,3 15
22.04.2018 17:00:00 9,5 6,2 40 21 47 25 ZZO 1007,0 16
22.04.2018 16:00:00 9,2 5,9 46 25 47 25 ZZO 1007,3 10
22.04.2018 15:00:00 9,1 6,0 44 24 43 23 ZZO 1008,4 10
22.04.2018 14:00:00 9,1 5,8 44 24 43 23 ZZO 1009,3 10
22.04.2018 13:00:00 9,0 5,6 48 26 54 29 ZZO 1009,8 10
22.04.2018 12:00:00 9,4 5,6 57 31 58 31 ZO 1009,9 10
22.04.2018 11:00:00 8,9 5,5 50 27 50 27 ZZO 1011,0 10
22.04.2018 10:00:00 8,9 5,7 52 28 50 27 ZZO 1011,6 10
22.04.2018 09:00:00 9,0 5,7 46 25 47 25 ZZO 1012,5 10
22.04.2018 08:00:00 8,8 5,7 50 27 50 27 ZZO 1012,9 10
22.04.2018 07:00:00 8,6 6,0 43 23 50 27 ZO 1013,1 28
22.04.2018 06:00:00 8,7 6,2 48 26 47 25 ZO 1013,9 10
22.04.2018 05:00:00 8,5 6,3 36 19 43 23 ZO 1015,3 29
22.04.2018 04:00:00 8,4 6,6 36 19 43 23 ZO 1015,9 29
22.04.2018 03:00:00 8,3 6,6 41 22 40 21 ZO 1016,6 10
22.04.2018 02:00:00 8,5 6,2 39 21 36 19 ZO 1017,4 10
22.04.2018 01:00:00 8,6 6,4 35 19 32 18 ZO 1018,1 10
22.04.2018 00:00:00 8,3 6,4 35 19 32 18 ZO 1018,6 10
21.04.2018 23:00:00 8,4 6,4 29 16 29 16 ZZO 1019,0 10
21.04.2018 22:00:00 7,9 7,0 28 15 25 14 ZZO 1019,8 10
21.04.2018 21:00:00 8,1 7,2 24 13 22 12 ZZO 1020,4 10
21.04.2018 20:00:00 8,4 7,2 18 10 18 10 ZZO 1020,7 37
21.04.2018 19:00:00 8,3 6,9 7 4 14 8 ZO 1021,1 45
21.04.2018 18:00:00 8,4 7,0 7 4 14 8 O 1021,5 47
21.04.2018 17:00:00 8,0 6,7 11 6 14 8 O 1022,1 30
21.04.2018 16:00:00 7,9 6,7 7 4 11 6 ONO 1022,8 37
21.04.2018 15:00:00 7,7 6,3 5 3 14 8 NW 1023,5 10
21.04.2018 14:00:00 7,6 6,0 11 6 11 6 N 1023,5 10
21.04.2018 13:00:00 7,5 5,9 13 7 14 8 NNW 1023,7 10
21.04.2018 12:00:00 8,2 5,9 18 10 22 12 NNW 1023,7 10
21.04.2018 11:00:00 7,7 5,9 26 14 25 14 NNW 1023,6 10
21.04.2018 10:00:00 7,3 6,0 24 13 25 14 NW 1023,2 10
21.04.2018 09:00:00 7,2 5,8 22 12 22 12 NW 1023,1 10
21.04.2018 08:00:00 7,2 5,7 28 15 32 18 NW 1022,8 10
21.04.2018 07:00:00 7,5 5,6 29 16 29 16 NW 1022,2 31
21.04.2018 06:00:00 8,0 5,4 25 14 29 16 W 1022,1 46
21.04.2018 05:00:00 8,3 5,4 29 16 29 16 W 1022,3 48
21.04.2018 04:00:00 8,1 5,8 25 14 29 16 W 1022,4 42
21.04.2018 03:00:00 8,3 5,9 25 14 29 16 WNW 1022,3 43
21.04.2018 02:00:00 8,7 5,7 28 15 25 14 NW 1022,6 10
21.04.2018 01:00:00 9,0 6,1 28 15 25 14 NW 1022,8 10
21.04.2018 00:00:00 8,8 7,1 26 14 25 14 NW 1022,6 10
20.04.2018 23:00:00 7,8 6,5 26 14 25 14 NW 1022,7 10
20.04.2018 22:00:00 8,4 6,9 25 14 25 14 NNW 1022,6 28
20.04.2018 21:00:00 7,8 6,9 26 14 29 16 NW 1022,1 10
20.04.2018 20:00:00 8,4 7,1 22 12 25 14 NW 1021,7 21
20.04.2018 19:00:00 8,4 7,2 28 15 32 18 NNW 1021,6 10
20.04.2018 18:00:00 8,0 7,1 25 14 32 18 NNW 1021,5 18
20.04.2018 17:00:00 7,9 7,0 22 12 25 14 NW 1021,3 9
20.04.2018 16:00:00 8,3 7,2 22 12 29 16 NNW 1021,1 9
20.04.2018 15:00:00 9,2 7,6 29 16 29 16 NNW 1021,1 15
20.04.2018 14:00:00 8,0 6,6 34 18 29 16 NNW 1021,2 4,6
20.04.2018 13:00:00 8,4 6,2 26 14 25 14 WNW 1020,9 6
20.04.2018 12:00:00 8,0 6,4 28 15 29 16 NW 1020,7 5
20.04.2018 11:00:00 9,4 6,6 21 11 18 10 WZW 1020,5 7

tt = temperatuur
td = dauwpunt
ff = windsnelheid
fx = windstoten
dd = windrichting
ppp = luchtdruk
vv = zicht

Weerstations in de omgeving